Voltar ao catálogo

STARLINK-31461

AtivoComunicaçõesVLEO
NORAD 59370·PAYLOAD·🇺🇸 United States

Lançado Mar 31, 2024 de Cape Canaveral Space Force Station

Loading…

Próximas Passagens (próximas 24 horas)

TLE

AtualizadoSource: CelesTrak SupGP

Época: Sep 15, 2026, 02:13 UTC

1 59370C 24060Y   26258.09284722 -.00015687  00000+0 -56817-3 0  2589
2 59370  42.9998 259.3720 0001365 266.5080 135.8670 15.27587935    10

Acompanhe STARLINK-31461 em tempo real com AllMySat

Download on the App Store